Weather History for Mountain Home, AR

Change the Weather History Date:

Friday, May 30, 2014

  Actual Average (KHRO) Record (KHRO)
Temperature  
Mean Temperature 73 °F 69 °F  
Max Temperature 81 °F 80 °F 98 °F (1928)
Min Temperature 66 °F 59 °F 35 °F (1947)
Degree Days  
Heating Degree Days 0 1  
Month to date heating degree days 76  
Since 1 July heating degree days 3997  
Cooling Degree Days 8 5  
Month to date cooling degree days 98  
Year to date cooling degree days 135  
Growing Degree Days 23 (Base 50)    
Moisture  
Dew Point 67 °F    
Average Humidity 89    
Maximum Humidity 100    
Minimum Humidity 64    
Precipitation  
Precipitation 0.37 in 0.14 in 1.02 in (1990)
Month to date precipitation 4.55  
Year to date precipitation 17.86  
Snow  
Snow 0.00 in 0.00 in - ()
Month to date snowfall 0.0  
Since 1 July snowfall 11.5  
Snow Depth -    
Sea Level Pressure  
Sea Level Pressure 29.98 in    
Wind  
Wind Speed 6 mph (East)    
Max Wind Speed 14 mph    
Max Gust Speed 23 mph    
Visibility 8 miles    
Events Rain    
T = Trace of Precipitation, MM = Missing Value Source: NWS Daily Summary

Daily Weather History Graph

Daily Weather History Graph

Search for Another Location

Airport:

Trip Planner

Search our weather history database for the weather conditions in past years. The results will help you decide how hot, cold, wet, or windy it might be!

Date:

Astronomy

May. 30, 2014 Rise Set
Actual Time 5:54 AM CDT 8:20 PM CDT
Civil Twilight 5:24 AM CDT 8:50 PM CDT
Nautical Twilight 4:47 AM CDT 9:27 PM CDT
Astronomical Twilight 4:07 AM CDT 10:08 PM CDT
Moon 7:37 AM CDT (5/30) 10:00 PM CDT (5/30)
Length of Visible Light 15h 26m
Length of Day
14h 26m
Waxing Crescent, 4% of the Moon is Illuminated
May 30
Waxing Crescent
Jun 5
First Quarter
Jun 12
Full
Jun 19
Last Quarter
Jun 27
New

Hourly Weather History & Observations

Time (CDT) Temp. Heat Index Dew Point Humidity Pressure Visibility Wind Dir Wind Speed Gust Speed Precip Events Conditions
12:00 AM 68.0 °F - 66.0 °F 93% 29.98 in 10.0 mi ESE 8.1 mph - N/A   Overcast
12:35 AM 68.0 °F - 66.0 °F 93% 29.97 in 10.0 mi ESE 4.6 mph - N/A   Overcast
12:53 AM 68.0 °F - 66.0 °F 93% 29.94 in 9.0 mi ESE 5.8 mph - N/A   Overcast
1:02 AM 68.0 °F - 66.0 °F 93% 29.97 in 9.0 mi East 4.6 mph - N/A   Mostly Cloudy
1:42 AM 68.0 °F - 66.9 °F 96% 29.97 in 9.0 mi East 4.6 mph - N/A   Overcast
1:53 AM 68.0 °F - 66.9 °F 96% 29.95 in 9.0 mi East 3.5 mph - N/A   Overcast
2:03 AM 68.0 °F - 66.9 °F 96% 29.97 in 7.0 mi ENE 4.6 mph - 0.00 in Rain Light Rain
2:53 AM 68.0 °F - 66.9 °F 96% 29.94 in 7.0 mi ENE 3.5 mph - 0.00 in   Overcast
3:19 AM 68.0 °F - 66.9 °F 96% 29.97 in 7.0 mi ENE 3.5 mph - N/A   Overcast
3:39 AM 66.9 °F - 66.9 °F 100% 29.96 in 7.0 mi ENE 4.6 mph - N/A   Overcast
3:53 AM 66.9 °F - 66.9 °F 100% 29.94 in 7.0 mi ENE 4.6 mph - N/A   Overcast
4:45 AM 66.9 °F - 66.9 °F 100% 29.97 in 7.0 mi ENE 4.6 mph - N/A   Overcast
4:53 AM 66.9 °F - 66.9 °F 100% 29.95 in 7.0 mi ENE 4.6 mph - N/A   Overcast
5:24 AM 68.0 °F - 66.9 °F 96% 29.98 in 7.0 mi ENE 4.6 mph - 0.00 in Rain Light Rain
5:29 AM 68.0 °F - 66.9 °F 96% 29.98 in 8.0 mi ENE 5.8 mph - 0.00 in Rain Light Rain
5:41 AM 68.0 °F - 66.9 °F 96% 29.98 in 7.0 mi ENE 4.6 mph - 0.00 in   Overcast
5:48 AM 68.0 °F - 66.2 °F 94% 29.98 in 7.0 mi ENE 3.5 mph - 0.00 in   Overcast
5:53 AM 66.9 °F - 66.9 °F 100% 29.96 in 6.0 mi ENE 4.6 mph - 0.00 in   Overcast
6:20 AM 68.0 °F - 66.9 °F 96% 29.98 in 5.0 mi ENE 4.6 mph - N/A   Overcast
6:33 AM 68.0 °F - 66.9 °F 96% 29.98 in 5.0 mi NE 3.5 mph - N/A   Overcast
6:53 AM 68.0 °F - 66.9 °F 96% 29.96 in 6.0 mi ENE 4.6 mph - N/A   Overcast
7:14 AM 68.0 °F - 66.9 °F 96% 29.99 in 7.0 mi ENE 6.9 mph - N/A   Overcast
7:53 AM 68.0 °F - 66.9 °F 96% 29.98 in 7.0 mi East 9.2 mph - N/A   Overcast
8:53 AM 72.0 °F - 68.0 °F 87% 29.99 in 7.0 mi East 6.9 mph - N/A   Overcast
9:29 AM 72.0 °F - 66.9 °F 84% 30.01 in 8.0 mi ENE 10.4 mph - N/A   Overcast
9:53 AM 71.1 °F - 66.9 °F 87% 29.99 in 8.0 mi East 9.2 mph - N/A   Overcast
10:53 AM 73.9 °F - 66.9 °F 79% 30.01 in 10.0 mi East 8.1 mph - N/A   Overcast
11:03 AM 73.0 °F - 66.9 °F 81% 30.03 in 9.0 mi East 8.1 mph - 0.00 in Rain Light Rain
11:10 AM 73.0 °F - 66.9 °F 81% 30.03 in 9.0 mi East 8.1 mph - 0.00 in Rain Light Rain
11:19 AM 73.0 °F - 66.9 °F 81% 30.03 in 8.0 mi ENE 10.4 mph - 0.00 in Rain Light Rain
11:53 AM 72.0 °F - 69.1 °F 91% 30.01 in 8.0 mi East 9.2 mph - 0.02 in Rain Light Rain
12:25 PM 75.0 °F - 68.0 °F 79% 30.03 in 10.0 mi ENE 13.8 mph 20.7 mph 0.00 in   Mostly Cloudy
12:38 PM 75.0 °F - 68.0 °F 79% 30.03 in 10.0 mi East 9.2 mph 19.6 mph 0.00 in   Mostly Cloudy
1:33 PM 78.1 °F - 66.9 °F 68% 30.02 in 10.0 mi ESE 8.1 mph 19.6 mph N/A   Mostly Cloudy
1:40 PM 77.0 °F - 66.0 °F 69% 30.02 in 10.0 mi ESE 11.5 mph 19.6 mph N/A   Mostly Cloudy
1:53 PM 75.9 °F - 66.9 °F 74% 29.99 in 10.0 mi East 12.7 mph 23.0 mph 0.00 in Rain Light Rain
2:53 PM 77.0 °F - 68.0 °F 74% 29.97 in 10.0 mi ESE 13.8 mph 21.9 mph 0.00 in   Mostly Cloudy
3:16 PM 79.0 °F - 66.9 °F 66% 29.99 in 10.0 mi East 11.5 mph - N/A   Scattered Clouds
4:53 PM 80.1 °F 82.3 °F 66.9 °F 64% 29.94 in 10.0 mi East 11.5 mph - N/A   Partly Cloudy
5:53 PM 75.9 °F - 68.0 °F 76% 29.94 in 10.0 mi East 5.8 mph - 0.00 in   Scattered Clouds
6:53 PM 72.0 °F - 68.0 °F 87% 29.96 in 10.0 mi ESE 5.8 mph - 0.04 in   Mostly Cloudy
7:53 PM 72.0 °F - 69.1 °F 91% 29.97 in 9.0 mi East 3.5 mph - 0.00 in   Partly Cloudy
8:20 PM 72.0 °F - 69.1 °F 91% 30.01 in 10.0 mi ESE 9.2 mph - N/A   Overcast
8:25 PM 71.1 °F - 69.1 °F 93% 30.01 in 2.5 mi ESE 12.7 mph - 0.11 in Rain Heavy Rain
8:33 PM 69.1 °F - 68.0 °F 96% 30.01 in 1.5 mi ESE 6.9 mph - 0.24 in Rain Heavy Rain
8:53 PM 66.9 °F - 66.0 °F 97% 29.99 in 5.0 mi SE 4.6 mph - 0.29 in Rain Rain
9:53 PM 68.0 °F - 66.0 °F 93% 30.00 in 10.0 mi NE 3.5 mph - 0.02 in Rain Light Rain
10:53 PM 68.0 °F - 66.9 °F 96% 29.99 in 9.0 mi ENE 4.6 mph - 0.00 in   Clear
11:43 PM 68.0 °F - 68.0 °F 100% 30.01 in 9.0 mi ENE 4.6 mph - N/A   Mostly Cloudy
11:53 PM 68.0 °F - 66.9 °F 96% 29.99 in 9.0 mi East 3.5 mph - N/A   Scattered Clouds